Terminal Aerodrome Forecast
Issued by NWS

Home | Current Version | Previous Version | Text Only | Print | Product List | Glossary On
Versions: 1 2 3 4 5 6 7 8 9 10 11 12 13 14 15 16 17 18 19 20
356
FTUS44 KBMX 211002 AAB
TAFANB
TAF AMD
KANB 211002Z 2110/2206 VRB02KT 1/2SM FG OVC002
     FM211200 VRB02KT 4SM BR VCSH OVC010
     FM211500 12005KT 4SM TSRA BR OVC020CB
     FM211800 17007KT 5SM -RA BR OVC025
     FM212200 19008KT P6SM OVC015=

USA.gov is the U.S. government's official web portal to all federal, state and local government web resources and services.